Montana Department of Transportation

Main Content

Accidents and Incidents Report

Hourly Weather Roundup

ASUS45 KTFX 282310

RWRMT 

Montana Regional Weather Roundup

National Weather Service Great Falls MT

400 PM MST TUE JAN 28 2020



NOTE: "FAIR" indicates few or no clouds below 12,000 feet with no

significant weather and/or obstructions to visibility.



MTZ001.007-043-290000-

West of the divide

  

CITY           SKY/WX    TMP DP  RH WIND       PRES   REMARKS

Kalispell      CLOUDY    36  32  85 CALM      30.00R                  

Missoula       CLOUDY    39  32  76 CALM      29.98S                  

Butte          CLOUDY    36  26  67 N3        29.96R                  

Anaconda         N/A     39  25  56 S8        29.93S                  

Deer Lodge       N/A     37  28  70 NW6       29.96R                  

Hamilton       PTSUNNY   43  34  70 CALM      29.95S                  

Mullan Pass    CLOUDY    30  27  88 VRB5      29.94  FOG              

Plains           N/A     39  33  79 CALM      30.01R                  

Ronan            N/A     37  36  93 N6        29.98R FOG              

--------------------------------



MTZ008-052.055-290000-

Southwest Montana

  

CITY           SKY/WX    TMP DP  RH WIND       PRES   REMARKS

Bozeman        CLOUDY    36  32  85 NW6       29.96S WCI  31          

Dillon         CLOUDY    32  27  81 SW8       29.96R WCI  25          

Ennis          CLOUDY    34  30  86 S13       30.01S WCI  25          

W Yellowstone  PTSUNNY   28  25  86 SW9       29.99S WCI  20          

--------------------------------



MTZ009-010-012-014-046-048-049-054-290000-

East Slopes and Central Montana

  

CITY           SKY/WX    TMP DP  RH WIND       PRES   REMARKS

Cut Bank       FAIR      44  24  45 W17       29.86R                  

Great Falls    FAIR      46  24  42 SW15      29.86S                  

Helena         PTSUNNY   41  22  46 CALM      29.94R                  

Malmstrom AFB  PTSUNNY   46  25  44 SW13      29.89R                  

Augusta        PTSUNNY   44  22  41 N7        29.87R                  

Bowmans Corner FAIR      44  20  39 W14       29.86R                  

Choteau          N/A     45  23  42 N9        29.86R                  

Fairfield      FAIR      47  22  37 W6        29.86R                  

Power          PTSUNNY   46  21  37 W7        29.85S                  

Raynesford     FAIR      45  23  42 SW15      29.88R                  

Ulm            PTSUNNY   46  25  42 SW17      29.89S                  

White Sulphur    N/A     37  25  60 SW10G16   29.92S WCI  30          

--------------------------------



MTZ011-013-016-021-045-047-050-051-290000-

North Central Montana

  

CITY           SKY/WX    TMP DP  RH WIND       PRES   REMARKS

Havre          FAIR      39  26  59 E8        29.88R                  

Lewistown      CLOUDY    43  28  55 W3        29.87S                  

Chinook          N/A     39  27  60 E6        29.91R                  

Denton         MOCLDY    47  25  42 NW9       29.84S                  

Fort Benton      N/A     48  25  40 CALM      29.87S                  

Geyser         MOCLDY    45  24  43 W15G25    29.87R                  

Grass Range    CLOUDY    41  25  52 CALM      29.85R                  

Judith Gap     FAIR      41  25  53 W7        29.87S                  

Roy            MOCLDY    38  26  59 S8        29.87S                  

Stanford       FAIR      44  23  43 W12       29.87S                  

--------------------------------



MTZ017.020-022.027-061-062-290000-

Northeast Montana

  

CITY           SKY/WX    TMP DP  RH WIND       PRES   REMARKS

Glasgow        FAIR      40  24  53 CALM      29.92R                  

Circle           N/A     41  23  48 W5        29.91                   

Culbertson       N/A     36  28  75 N6        29.92R WCI  31          

Glendive       FAIR      39  23  52 W7        29.94R                  

Jordan           N/A     45  19  35 W6        29.91S                  

Malta          PTCLDY    37  28  70 NE6       29.90S                  

Poplar           N/A     37  25  60 SW6       29.93RSidney         FAIR      40  27  59 W5        29.94S                  

Wolf Point     FAIR      39  24  55 W9        29.93S                  

--------------------------------



MTZ028.42-056.058-290000-

Southcentral and southeast Montana

  

CITY           SKY/WX    TMP DP  RH WIND       PRES   REMARKS

Baker          FAIR      40  23  50 W8        29.93F                  

Big Timber     MOSUNNY   43  28  56 W24G32    29.92F                  

Billings       MOCLDY    46  19  34 W14       29.91R                  

Forsyth          N/A     43  23  45 E3        29.93S                  

Hardin         CLOUDY    41  28  60 E3        29.90                   

Harlowton      CLOUDY    40  26  57 W18       29.90S                  

Laurel           N/A     46  19  34 SW14      29.92S                  

Livingston     CLOUDY    43  26  51 W15G23    29.92F                  

Miles City     FAIR      42  20  41 CALM      29.93S                  

Roundup          N/A     46  21  37 W13       29.81                   

--------------------------------



Regional Reports...Dakotas/MN

  

CITY           SKY/WX    TMP DP  RH WIND       PRES   REMARKS

Williston      FAIR      29  22  75 NW5       29.92F                  

Minot          CLOUDY    32  28  85 SW7       29.93S WCI  26          

Dickinson      FAIR      39  27  62 W10       29.90S                  

Beach          FAIR      37  27  65 W6        29.94S                  

Crosby         CLOUDY    28  28 100 W9        29.94S FOG     WCI  20  

Hettinger      FAIR      40  26  57 W8        29.95R                  

Tioga          FAIR      27  27 100 NW8       29.95R WCI  18          

Bismarck       FAIR      37  28  70 SW5       29.95S                  

Grand Forks    CLOUDY    11   5  77 SE8       30.14S WCI  -1          

Fargo          CLOUDY    11   6  81 SE8       30.13S WCI  -1          

Buffalo SD       N/A     42  21  43 W8        29.92S                  

Rapid City     FAIR      41  24  51 SE6       29.97S                  

Intl Falls     CLOUDY    17  10  74 E3        30.13                   

Duluth         CLOUDY    19  12  74 CALM      30.10R                  

Minneapolis    FLURRIES  19  12  74 N3        30.16R                  

--------------------------------



Regional Reports...WY/ID/WA

  

CITY           SKY/WX    TMP DP  RH WIND       PRES   REMARKS

Buffalo WY     CLOUDY    41  11  29 S10       29.92S                  

Cody           PTSUNNY   39  15  37 SE12G21   29.93S WCI  32          

Gillette       FAIR      36  26  67 SW10      29.94F WCI  28          

Powell         FAIR      36   9  32 SE20      29.93S WCI  25          

Sheridan       CLOUDY    44  24  45 SE6       29.91F                  

Yellowstone La   N/A     27  24  89 CALM      30.00S                  

Boise          PTSUNNY   44  37  76 VRB5      30.06S                  

Couer d'Alene  LGT RAIN  35  34  96 N10       30.00R WCI  27          

Idaho Falls    FLURRIES  25  22  88 N5        30.07S                  

Spokane        LGT RAIN  39  36  89 N3        29.99                   

Seattle        CLOUDY    53  46  77 S12       30.04R                  

--------------------------------



Regional Reports...Alberta

  

CITY           SKY/WX    TMP DP  RH WIND       PRES   REMARKS

Cardston         N/A     43  25  49 W10         N/A                   

Crowsnest Pass   N/A     39  25  56 NW12G22     N/A  WCI  32          

Del Bonita       N/A     41  23  48 W17         N/A                   

Edmonton       CLOUDY    10  10 100 CALM      29.88R FOG              

Onefour          N/A     28  21  74 E6          N/A  WCI  22          

Raymond          N/A     45  25  45 W20         N/A                   

Waterton Gate    N/A     41  23  48 SW15G24     N/A                   

--------------------------------



Regional Reports...Saskatchewan

  

CITY           SKY/WX    TMP DP  RH WIND       PRES   REMARKS

Assiniboia       N/A     27  19  74 SW3         N/A                   

Coronach         N/A     27  21  80 W5          N/ACypress Hills    N/A     34  14  44 S3          N/A                   

La Ronge         N/A     21  19  93 E3          N/A                   

Moose Jaw        N/A     30  28  93 W2          N/A                   

Rockglen         N/A     23  18  80 W3          N/A                   

Uranium City     N/A     19  18  93 SW1         N/A                   

Val Marie        N/A     25  19  80 S2          N/A                   

--------------------------------